RH
14 12 12 11 10 8 6 5 4 3 2 1 1 1 2 2 3 5 7 9 12 16 20 27 26 13 12
13 13 12 9 7 6 5 3 2 1 1 1 1 2 3 4 6 8 11 14 18 23 30 30 16 14 22
14 11 10 10 8 6 3 2 1 1 1 2 2 4 5 7 10 12 14 20 26 30 35 27 14 20 23
14 14 13 11 6 3 2 1 1 2 2 4 4 6 7 10 13 15 16 20 28 34 39 21 16 16 20
17 17 14 7 3 2 1 1 2 2 3 6 7 8 9 12 15 17 18 19 27 37 42 22 19 17 21
20 15 10 7 2 1 1 2 2 4 3 9 8 8 8 10 14 18 19 19 28 41 46 30 23 22 23
17 15 9 3 1 1 2 3 5 7 5 8 9 8 8 9 12 16 18 22 30 47 50 52 31 25 23
18 11 4 2 2 2 2 4 8 12 10 8 8 8 12 18 17 18 22 24 35 52 52 54 56 37 34
18 8 2 2 2 4 7 9 10 11 9 8 8 7 9 13 16 23 30 32 43 55 57 52 51 56 53
17 5 3 4 7 9 11 13 14 11 10 9 8 9 8 9 14 25 35 43 54 67 65 60 44 35 49
12 4 4 9 12 15 17 16 14 10 10 9 9 12 13 12 13 24 36 44 49 57 57 50 37 30 45
8 5 10 13 15 18 20 16 11 10 10 13 13 14 14 14 14 24 45 54 54 55 51 42 33 38 58
6 10 13 14 18 23 20 16 11 18 20 22 20 19 19 18 18 34 47 55 58 53 49 40 32 45 56
8 12 16 21 26 25 17 12 10 19 33 30 28 26 25 31 37 54 73 63 63 56 48 42 38 51 58
16 18 25 30 29 20 13 12 18 24 34 36 36 40 44 51 54 74 76 75 72 63 56 47 40 47 54
23 27 33 30 19 9 14 23 30 42 44 39 36 36 53 82 89 89 92 88 85 80 74 64 54 51 45
31 33 25 10 8 19 27 37 46 48 45 45 46 42 35 36 48 92 90 87 86 81 84 79 67 69 59
Wind_Speed
20 23 25 28 29 30 32 33 36 39 41 43 45 46 47 49 47 44 44 45 44 42 43 43 43 40 36
22 24 25 26 28 31 33 35 36 40 42 45 46 47 47 45 45 44 42 42 41 41 42 41 40 36 31
20 22 24 26 29 32 34 36 38 42 44 44 44 45 43 43 42 40 39 39 39 41 40 40 37 32 28
20 22 26 29 31 32 32 36 37 40 42 41 43 42 43 42 40 39 39 39 39 40 37 35 32 29 25
22 25 29 32 34 36 36 36 36 39 39 36 38 37 38 39 38 38 38 39 39 39 35 32 27 25 23
25 29 33 34 35 36 39 41 38 40 43 31 36 34 35 37 37 37 39 38 39 37 33 30 27 25 25
30 34 37 38 37 38 41 42 42 41 46 39 37 36 34 35 35 37 39 38 38 36 33 31 28 27 28
34 38 39 39 41 43 45 43 39 36 41 44 41 40 36 35 35 36 38 38 38 36 33 31 29 29 29
38 40 40 42 45 44 43 42 42 38 38 43 42 42 40 36 34 33 35 36 36 36 34 32 31 30 29
40 41 42 42 42 42 42 42 43 44 43 46 45 45 44 41 36 29 29 31 32 34 33 32 32 34 31
41 42 42 40 38 39 40 42 43 45 44 48 47 47 47 46 43 33 28 28 29 29 30 30 31 33 31
43 42 40 37 37 38 39 42 44 46 46 47 48 47 46 44 43 33 28 26 29 28 28 27 28 29 30
43 41 38 36 35 37 40 44 44 43 44 45 46 45 44 42 40 32 32 27 26 28 28 27 27 26 23
43 42 38 35 36 41 44 45 45 42 40 42 42 42 41 38 36 32 28 32 27 29 29 28 27 25 24
42 38 36 39 41 44 46 46 44 43 40 38 38 39 37 36 36 31 29 28 29 29 30 29 26 25 25
38 38 41 44 46 44 43 42 42 41 39 38 37 38 35 27 31 33 28 29 27 29 30 31 26 22 26
39 41 45 45 43 39 39 40 41 40 37 35 35 39 39 37 25 26 34 30 30 28 31 32 29 25 24
Wind_Direction
292 293 297 299 302 304 301 304 306 307 309 309 309 311 312 312 313 314 316 316 315 313 310 309 308 306 303
293 298 296 302 306 304 306 308 309 309 310 311 312 312 312 314 315 316 316 316 316 313 308 310 309 307 304
296 298 305 309 308 309 312 312 312 311 312 313 312 312 313 313 313 314 317 319 316 311 311 312 309 305 301
300 311 313 312 313 314 313 313 313 312 313 313 312 313 311 309 309 315 318 320 317 313 309 308 306 305 305
312 315 316 320 319 316 314 313 314 314 314 313 308 306 305 304 307 311 314 318 316 310 307 306 300 300 301
317 321 323 322 319 317 316 319 317 316 315 318 310 310 307 303 305 308 312 313 311 310 306 301 297 293 294
324 329 328 324 321 321 320 320 322 323 318 321 317 318 314 309 308 306 305 306 307 307 306 299 294 289 288
331 331 328 325 324 324 322 322 323 325 321 319 319 319 316 312 308 304 302 302 302 303 305 303 295 287 285
334 332 329 328 325 324 323 322 323 325 320 316 318 316 314 312 308 303 297 295 297 300 302 302 301 295 289
333 333 331 327 325 323 323 324 325 324 322 318 319 316 312 311 310 305 293 290 292 295 297 300 300 298 296
334 331 328 326 325 324 324 323 322 320 319 317 316 314 312 312 311 311 301 291 291 295 298 300 299 296 294
332 329 327 325 325 323 321 319 320 319 317 314 312 311 310 311 311 314 305 301 300 302 302 301 299 294 295
329 328 327 326 323 320 319 319 320 318 315 311 310 310 311 313 312 318 310 307 306 304 304 304 301 294 287
328 328 326 324 322 321 320 319 318 316 314 312 312 311 312 312 312 314 312 311 312 309 308 308 304 299 292
327 325 324 325 325 323 320 319 318 316 318 316 314 313 313 316 314 314 314 312 311 310 306 306 305 300 292
326 326 326 325 324 322 319 319 320 321 320 318 316 313 312 314 308 309 308 309 308 306 304 304 307 303 291
326 326 324 323 321 319 320 322 322 321 321 321 319 315 315 316 318 316 311 312 308 305 304 304 305 304 297